Overview Statistics Trail Chart Weather Telemetry Raw packets
 

This is the latest recevied weather packets stored in our database for station/object SV9TNF-51. If no packets are shown the sender has not sent any weather packets the latest 10 day(s).

<< 1 2 3 4 5 6 7 >>
Time Temp. Humidity Pressure Rain* Wind** Luminosity Snow
1788644874 25° C 56% 1014.2 hPa 0 mm 0 m/s - -
1788644574 25° C 57% 1014.2 hPa 0 mm 4.02 m/s, 24° - -
1788644274 25° C 49% 1014.2 hPa 0 mm 1.34 m/s, 57° - -
1788643974 25° C 43% 1014.2 hPa 0 mm 7.15 m/s, 330° - -
1788643673 24.44° C 42% 1014.2 hPa 0 mm 4.92 m/s, 356° - -
1788643373 24.44° C 48% 1014.2 hPa 0 mm 2.68 m/s, 139° - -
1788643073 25° C 60% 1014.2 hPa 0 mm 0 m/s - -
1788642773 25° C 59% 1014.2 hPa 0 mm 4.47 m/s, 337° - -
1788642473 25° C 57% 1014.2 hPa 0 mm 4.47 m/s, 339° - -
1788642173 25° C 43% 1014.2 hPa 0 mm 4.92 m/s, 347° - -
1788641873 25° C 47% 1014.2 hPa 0 mm 4.02 m/s, 144° - -
1788641573 25.56° C 59% 1014.2 hPa 0 mm 1.34 m/s, 121° - -
1788641273 25.56° C 58% 1014.2 hPa 0 mm 0 m/s - -
1788640973 25.56° C 59% 1014.2 hPa 0 mm 0.89 m/s, 133° - -
1788640673 25.56° C 55% 1014.2 hPa 0 mm 2.68 m/s, 128° - -
1788640372 25.56° C 41% 1014.6 hPa 0 mm 4.92 m/s, 23° - -
1788640072 25° C 43% 1014.6 hPa 0 mm 3.13 m/s, 190° - -
1788639772 25.56° C 52% 1014.6 hPa 0 mm 0 m/s - -
1788639472 25.56° C 48% 1014.6 hPa 0 mm 0.89 m/s, 125° - -
1788639172 25.56° C 45% 1014.6 hPa 0 mm 4.47 m/s, 359° - -
1788638872 25.56° C 44% 1014.6 hPa 0 mm 4.47 m/s, 357° - -
1788638572 25.56° C 45% 1014.6 hPa 0 mm 4.92 m/s, 46° - -
1788638272 25° C 43% 1014.6 hPa 0 mm 5.81 m/s, 321° - -
1788637971 25.56° C 43% 1014.6 hPa 0 mm 3.13 m/s, 73° - -
1788637671 25° C 44% 1014.6 hPa 0 mm 3.58 m/s, 56° - -

* Rain latest hour (hover to see other rain measurements)
** Current wind speed in m/s (hover to see current wind gust speed)